T7RYM SULS-SABE

Flight info

Callsign T7RYM
Flight time 0h 41m
Altitude 22000
Route LUCIO A306 UGIMI UGIMI8Q
Aircraft GL7T/M-SABDE1E2E3FGHIJ1J3J4J7M3P2RWXYZ/LB2D1

Departure

Time 2026-05-05 21:33
Airport Capitan Corbeta CA Curbelo International Airport (SULS)

Arrival

Time 2026-05-05 22:14
Airport Aeroparque Jorge Newbery (SABE)
Time Latitude Longitude Altitude Speed Heading
2026-05-05 21:15 -34.85982 -55.10005 97 ft 0 kts 162°
2026-05-05 21:27 -34.85984 -55.10004 97 ft 0 kts 162°
2026-05-05 21:27 -34.85992 -55.10001 97 ft 1 kts 160°
2026-05-05 21:28 -34.86010 -55.09993 97 ft 3 kts 158°
2026-05-05 21:28 -34.86015 -55.09958 97 ft 5 kts 71°
2026-05-05 21:28 -34.86002 -55.09909 97 ft 5 kts 73°
2026-05-05 21:28 -34.85989 -55.09859 97 ft 5 kts 70°
2026-05-05 21:29 -34.85959 -55.09812 96 ft 7 kts 14°
2026-05-05 21:29 -34.85917 -55.09825 96 ft 7 kts 341°
2026-05-05 21:29 -34.85868 -55.09844 95 ft 6 kts 342°
2026-05-05 21:29 -34.85810 -55.09866 93 ft 9 kts 341°
2026-05-05 21:30 -34.85748 -55.09890 92 ft 11 kts 346°
2026-05-05 21:30 -34.85672 -55.09918 90 ft 10 kts 339°
2026-05-05 21:30 -34.85658 -55.09993 90 ft 11 kts 250°
2026-05-05 21:30 -34.85686 -55.10089 91 ft 13 kts 255°
2026-05-05 21:31 -34.85712 -55.10202 91 ft 14 kts 253°
2026-05-05 21:31 -34.85746 -55.10323 90 ft 15 kts 251°
2026-05-05 21:31 -34.85783 -55.10461 90 ft 18 kts 253°
2026-05-05 21:31 -34.85824 -55.10618 91 ft 20 kts 252°
2026-05-05 21:32 -34.85867 -55.10784 93 ft 21 kts 253°
2026-05-05 21:32 -34.85913 -55.10960 96 ft 21 kts 251°
2026-05-05 21:32 -34.85964 -55.11120 98 ft 14 kts 240°
2026-05-05 21:32 -34.86008 -55.11205 98 ft 8 kts 290°
2026-05-05 21:33 -34.85981 -55.11200 98 ft 5 kts 66°
2026-05-05 21:33 -34.85868 -55.10793 93 ft 120 kts 72°
2026-05-05 21:33 -34.85484 -55.09355 291 ft 227 kts 72°
2026-05-05 21:33 -34.84883 -55.07658 1016 ft 202 kts 72°
2026-05-05 21:34 -34.85013 -55.05981 1688 ft 209 kts 120°
2026-05-05 21:34 -34.86111 -55.04910 2422 ft 215 kts 165°
2026-05-05 21:34 -34.87561 -55.05076 3020 ft 241 kts 204°
2026-05-05 21:34 -34.88825 -55.06644 3978 ft 280 kts 249°
2026-05-05 21:35 -34.88921 -55.08780 6301 ft 261 kts 278°
2026-05-05 21:35 -34.88933 -55.11002 7746 ft 277 kts 263°
2026-05-05 21:35 -34.89161 -55.13291 9404 ft 282 kts 264°
2026-05-05 21:35 -34.89346 -55.15660 10862 ft 294 kts 265°
2026-05-05 21:36 -34.89529 -55.18413 10978 ft 350 kts 265°
2026-05-05 21:36 -34.89711 -55.21417 12084 ft 355 kts 265°
2026-05-05 21:36 -34.89887 -55.24412 12003 ft 351 kts 265°
2026-05-05 21:36 -34.90059 -55.27376 12020 ft 349 kts 265°
2026-05-05 21:37 -34.90228 -55.30296 12019 ft 349 kts 265°
2026-05-05 21:37 -34.90399 -55.33280 12019 ft 349 kts 265°
2026-05-05 21:37 -34.90567 -55.36230 12019 ft 349 kts 265°
2026-05-05 21:37 -34.90736 -55.39193 12019 ft 349 kts 265°
2026-05-05 21:38 -34.90905 -55.42193 12019 ft 349 kts 265°
2026-05-05 21:38 -34.91069 -55.45102 12019 ft 349 kts 265°
2026-05-05 21:38 -34.91235 -55.48060 12019 ft 349 kts 265°
2026-05-05 21:38 -34.91401 -55.51028 12019 ft 349 kts 265°
2026-05-05 21:39 -34.91565 -55.53981 12019 ft 349 kts 265°
2026-05-05 21:39 -34.91729 -55.56939 12019 ft 349 kts 265°
2026-05-05 21:39 -34.91890 -55.59854 12019 ft 349 kts 265°
2026-05-05 21:39 -34.92055 -55.62866 12018 ft 349 kts 265°
2026-05-05 21:40 -34.92216 -55.65820 12019 ft 349 kts 266°
2026-05-05 21:40 -34.92377 -55.68766 12020 ft 349 kts 266°
2026-05-05 21:40 -34.92536 -55.71707 12020 ft 349 kts 266°
2026-05-05 21:40 -34.92697 -55.74696 12020 ft 349 kts 266°
2026-05-05 21:41 -34.92856 -55.77648 12020 ft 349 kts 266°
2026-05-05 21:41 -34.93012 -55.80586 12020 ft 349 kts 266°
2026-05-05 21:41 -34.93171 -55.83560 12020 ft 349 kts 266°
2026-05-05 21:41 -34.93327 -55.86509 12020 ft 349 kts 266°
2026-05-05 21:42 -34.93483 -55.89486 12020 ft 349 kts 266°
2026-05-05 21:42 -34.93637 -55.92421 12020 ft 349 kts 266°
2026-05-05 21:42 -34.93792 -55.95390 12020 ft 350 kts 266°
2026-05-05 21:42 -34.93946 -55.98347 12020 ft 350 kts 266°
2026-05-05 21:43 -34.94100 -56.01330 12020 ft 350 kts 266°
2026-05-05 21:43 -34.94250 -56.04241 12019 ft 350 kts 266°
2026-05-05 21:43 -34.94403 -56.07237 12019 ft 350 kts 266°
2026-05-05 21:43 -34.94555 -56.10201 12019 ft 350 kts 266°
2026-05-05 21:44 -34.94703 -56.13136 12019 ft 350 kts 266°
2026-05-05 21:44 -34.94854 -56.16127 12019 ft 350 kts 266°
2026-05-05 21:44 -34.95004 -56.19112 12019 ft 350 kts 266°
2026-05-05 21:44 -34.95152 -56.22067 12019 ft 350 kts 266°
2026-05-05 21:45 -34.95298 -56.25011 12019 ft 350 kts 266°
2026-05-05 21:45 -34.95447 -56.28013 12019 ft 351 kts 266°
2026-05-05 21:45 -34.95593 -56.30969 12019 ft 351 kts 266°
2026-05-05 21:45 -34.95738 -56.33937 12019 ft 351 kts 266°
2026-05-05 21:46 -34.95882 -56.36882 12019 ft 351 kts 266°
2026-05-05 21:46 -34.96027 -56.39870 12019 ft 351 kts 266°
2026-05-05 21:46 -34.96172 -56.42877 12019 ft 351 kts 266°
2026-05-05 21:46 -34.96304 -56.45624 12019 ft 351 kts 266°
2026-05-05 21:47 -34.96453 -56.48742 12019 ft 351 kts 266°
2026-05-05 21:47 -34.96593 -56.51685 12019 ft 351 kts 266°
2026-05-05 21:47 -34.96713 -56.54221 12019 ft 351 kts 266°
2026-05-05 21:47 -34.96847 -56.57069 12019 ft 351 kts 266°
2026-05-05 21:48 -34.96991 -56.60140 12019 ft 351 kts 266°
2026-05-05 21:48 -34.97129 -56.63102 12018 ft 351 kts 266°
2026-05-05 21:48 -34.97267 -56.66096 12019 ft 351 kts 266°
2026-05-05 21:48 -34.97404 -56.69055 12020 ft 351 kts 266°
2026-05-05 21:49 -34.97542 -56.72069 12020 ft 351 kts 266°
2026-05-05 21:49 -34.97677 -56.75029 12020 ft 351 kts 266°
2026-05-05 21:49 -34.97813 -56.78027 12020 ft 351 kts 266°
2026-05-05 21:49 -34.97948 -56.81013 12020 ft 351 kts 266°
2026-05-05 21:50 -34.98083 -56.84020 12020 ft 351 kts 266°
2026-05-05 21:50 -34.98181 -56.86978 12008 ft 351 kts 272°
2026-05-05 21:50 -34.97823 -56.89922 12017 ft 352 kts 280°
2026-05-05 21:50 -34.97301 -56.92825 12014 ft 352 kts 283°
2026-05-05 21:51 -34.96710 -56.95743 12010 ft 352 kts 283°
2026-05-05 21:51 -34.96106 -56.98624 12005 ft 352 kts 284°
2026-05-05 21:51 -34.95490 -57.01538 11999 ft 352 kts 284°
2026-05-05 21:51 -34.94879 -57.04411 11994 ft 353 kts 284°
2026-05-05 21:52 -34.93647 -57.10192 11982 ft 353 kts 284°
2026-05-05 21:52 -34.93027 -57.13095 11976 ft 353 kts 284°
2026-05-05 21:52 -34.92410 -57.15982 11975 ft 353 kts 284°
2026-05-05 21:53 -34.91792 -57.18870 11977 ft 353 kts 284°
2026-05-05 21:53 -34.91171 -57.21764 11978 ft 353 kts 284°
2026-05-05 21:53 -34.90555 -57.24635 11980 ft 353 kts 284°
2026-05-05 21:53 -34.89934 -57.27523 11983 ft 353 kts 284°
2026-05-05 21:54 -34.89309 -57.30428 11985 ft 353 kts 284°
2026-05-05 21:54 -34.88686 -57.33323 11988 ft 353 kts 284°
2026-05-05 21:54 -34.88065 -57.36200 11991 ft 353 kts 284°
2026-05-05 21:54 -34.87439 -57.39097 11992 ft 353 kts 284°
2026-05-05 21:55 -34.86817 -57.41974 11991 ft 353 kts 284°
2026-05-05 21:55 -34.86194 -57.44855 11990 ft 353 kts 284°
2026-05-05 21:55 -34.85559 -57.47781 11989 ft 353 kts 284°
2026-05-05 21:55 -34.84943 -57.50618 11988 ft 353 kts 284°
2026-05-05 21:56 -34.84305 -57.53556 11987 ft 353 kts 284°
2026-05-05 21:56 -34.83681 -57.56422 11985 ft 353 kts 284°
2026-05-05 21:56 -34.83048 -57.59328 11984 ft 353 kts 284°
2026-05-05 21:56 -34.82417 -57.62221 11984 ft 353 kts 284°
2026-05-05 21:57 -34.81793 -57.65077 11984 ft 353 kts 285°
2026-05-05 21:57 -34.81162 -57.67966 11985 ft 353 kts 285°
2026-05-05 21:57 -34.80524 -57.70878 11986 ft 353 kts 285°
2026-05-05 21:57 -34.79892 -57.73762 11987 ft 353 kts 285°
2026-05-05 21:58 -34.79254 -57.76666 11988 ft 353 kts 285°
2026-05-05 21:58 -34.78620 -57.79554 11989 ft 353 kts 285°
2026-05-05 21:58 -34.77992 -57.82409 11991 ft 353 kts 285°
2026-05-05 21:58 -34.77352 -57.85313 11993 ft 353 kts 285°
2026-05-05 21:59 -34.76722 -57.88173 11993 ft 353 kts 285°
2026-05-05 21:59 -34.76074 -57.91104 11993 ft 353 kts 285°
2026-05-05 21:59 -34.75439 -57.93977 11993 ft 353 kts 285°
2026-05-05 21:59 -34.74806 -57.96837 11993 ft 353 kts 285°
2026-05-05 22:00 -34.74162 -57.99744 11993 ft 353 kts 285°
2026-05-05 22:00 -34.73528 -58.02600 11993 ft 353 kts 285°
2026-05-05 22:00 -34.72882 -58.05508 11993 ft 353 kts 285°
2026-05-05 22:00 -34.72240 -58.08395 11993 ft 353 kts 285°
2026-05-05 22:01 -34.71591 -58.11307 11991 ft 353 kts 285°
2026-05-05 22:01 -34.70953 -58.14168 11987 ft 353 kts 285°
2026-05-05 22:01 -34.70306 -58.17064 11983 ft 353 kts 285°
2026-05-05 22:01 -34.69664 -58.19936 11979 ft 353 kts 285°
2026-05-05 22:02 -34.69018 -58.22826 11976 ft 353 kts 285°
2026-05-05 22:02 -34.68369 -58.25722 11973 ft 353 kts 285°
2026-05-05 22:02 -34.67727 -58.28584 11970 ft 353 kts 285°
2026-05-05 22:02 -34.67077 -58.31475 11969 ft 353 kts 285°
2026-05-05 22:03 -34.66456 -58.34240 11925 ft 317 kts 285°
2026-05-05 22:03 -34.65902 -58.36697 11668 ft 294 kts 284°
2026-05-05 22:03 -34.65359 -58.39108 11382 ft 292 kts 284°
2026-05-05 22:03 -34.64825 -58.41475 11090 ft 291 kts 284°
2026-05-05 22:04 -34.64285 -58.43868 10779 ft 291 kts 284°
2026-05-05 22:04 -34.63755 -58.46214 10466 ft 290 kts 284°
2026-05-05 22:04 -34.63220 -58.48575 10146 ft 289 kts 284°
2026-05-05 22:04 -34.62685 -58.50940 9825 ft 288 kts 284°
2026-05-05 22:05 -34.62154 -58.53283 9506 ft 287 kts 284°
2026-05-05 22:05 -34.61626 -58.55608 9191 ft 286 kts 284°
2026-05-05 22:05 -34.61102 -58.57916 8877 ft 285 kts 284°
2026-05-05 22:05 -34.60569 -58.60262 8558 ft 284 kts 284°
2026-05-05 22:06 -34.60047 -58.62556 8246 ft 283 kts 284°
2026-05-05 22:06 -34.59522 -58.64858 7933 ft 282 kts 284°
2026-05-05 22:06 -34.58999 -58.67152 7621 ft 281 kts 284°
2026-05-05 22:06 -34.58478 -58.69434 7311 ft 280 kts 284°
2026-05-05 22:07 -34.57964 -58.71690 7004 ft 279 kts 284°
2026-05-05 22:07 -34.57447 -58.73950 6696 ft 278 kts 285°
2026-05-05 22:07 -34.56645 -58.76075 5916 ft 280 kts 310°
2026-05-05 22:07 -34.55026 -58.77273 5526 ft 275 kts 347°
2026-05-05 22:08 -34.53144 -58.77130 5419 ft 276 kts 21°
2026-05-05 22:08 -34.51635 -58.75777 5238 ft 274 kts 53°
2026-05-05 22:08 -34.50702 -58.73739 4994 ft 272 kts 66°
2026-05-05 22:08 -34.49960 -58.71652 4671 ft 270 kts 68°
2026-05-05 22:09 -34.49266 -58.69598 4387 ft 269 kts 69°
2026-05-05 22:09 -34.48572 -58.67500 4080 ft 256 kts 69°
2026-05-05 22:09 -34.47948 -58.65605 3799 ft 236 kts 70°
2026-05-05 22:09 -34.47358 -58.63806 3555 ft 219 kts 70°
2026-05-05 22:10 -34.46815 -58.62149 3368 ft 202 kts 70°
2026-05-05 22:10 -34.46354 -58.60636 3220 ft 188 kts 79°
2026-05-05 22:10 -34.46552 -58.59100 3019 ft 184 kts 115°
2026-05-05 22:10 -34.47092 -58.57687 2938 ft 186 kts 117°
2026-05-05 22:11 -34.47725 -58.56332 2706 ft 184 kts 122°
2026-05-05 22:11 -34.48413 -58.55043 2472 ft 183 kts 124°
2026-05-05 22:11 -34.49120 -58.53764 2234 ft 183 kts 125°
2026-05-05 22:11 -34.49840 -58.52475 1988 ft 182 kts 125°
2026-05-05 22:12 -34.50548 -58.51209 1744 ft 181 kts 124°
2026-05-05 22:12 -34.51232 -58.49984 1540 ft 165 kts 124°
2026-05-05 22:12 -34.51860 -58.48860 1299 ft 158 kts 124°
2026-05-05 22:12 -34.52453 -58.47797 1090 ft 141 kts 124°
2026-05-05 22:13 -34.52953 -58.46903 880 ft 116 kts 124°
2026-05-05 22:13 -34.53401 -58.46100 735 ft 112 kts 124°
2026-05-05 22:13 -34.53846 -58.45303 593 ft 112 kts 124°
2026-05-05 22:13 -34.54279 -58.44526 449 ft 112 kts 124°
2026-05-05 22:14 -34.54720 -58.43731 301 ft 115 kts 123°
2026-05-05 22:14 -34.55181 -58.42894 141 ft 120 kts 124°
2026-05-05 22:14 -34.55664 -58.42045 29 ft 114 kts 124°
2026-05-05 22:14 -34.55986 -58.41457 27 ft 45 kts 124°
2026-05-05 22:15 -34.56126 -58.41207 27 ft 27 kts 124°
2026-05-05 22:15 -34.56224 -58.41111 27 ft 10 kts 202°
2026-05-05 22:15 -34.56279 -58.41154 27 ft 10 kts 214°
2026-05-05 22:15 -34.56316 -58.41144 27 ft 5 kts 125°
2026-05-05 22:16 -34.56340 -58.41101 27 ft 5 kts 133°
2026-05-05 22:16 -34.56354 -58.41100 27 ft 1 kts 210°
2026-05-05 22:16 -34.56359 -58.41105 27 ft 0 kts 214°